Location: Krakow
(50.0830°N, 19.9170°E)
Time: 12:15:59
(UTC+01:00)

Transit 2A Rocket - All Passes

Search period start: 15 March 2026 00:00
Search period end: 25 March 2026 00:00
Orbit: 583 x 900 km, 66.7° (Epoch: 14 March)

Date Brightness Start Highest point End Pass type
(mag) Time Alt. Az. Time Alt. Az. Time Alt. Az.
15 Mar - 09:20:20 10° SSW 09:26:07 51° ESE 09:31:45 10° NE daylight
15 Mar - 11:03:04 10° WSW 11:08:44 42° NW 11:14:09 10° NNE daylight
15 Mar - 12:48:45 10° WNW 12:52:36 18° NNW 12:56:19 10° NNE daylight
15 Mar - 14:34:12 10° NNW 14:37:15 15° N 14:40:12 10° NE daylight
15 Mar - 16:16:55 10° NNW 16:21:33 27° NNE 16:25:50 10° E daylight
15 Mar - 17:59:15 10° NW 18:04:34 78° SW 18:09:21 10° SSE daylight
15 Mar - 19:43:45 10° WNW 19:45:53 13° WSW 19:47:58 10° SW visible
16 Mar - 08:35:26 10° S 08:40:41 32° ESE 08:45:47 10° NE daylight
16 Mar - 10:16:55 10° SW 10:22:52 61° NW 10:28:33 10° NNE daylight
16 Mar - 12:01:54 10° WNW 12:06:21 22° NNW 12:10:39 10° NNE daylight
16 Mar - 13:47:57 10° NNW 13:50:53 14° N 13:53:42 10° NNE daylight
16 Mar - 15:31:19 10° NNW 15:35:25 21° NNE 15:39:15 10° ENE daylight
16 Mar - 17:13:33 10° NNW 17:18:53 65° NE 17:23:41 10° SE daylight
16 Mar - 18:56:46 10° WNW 19:00:43 23° WSW 19:04:24 10° SSW visible
17 Mar - 07:51:09 10° SSE 07:55:20 20° ESE 07:59:26 10° ENE daylight
17 Mar - 09:31:04 10° SW 09:37:07 90° ESE 09:42:55 10° NE daylight
17 Mar - 11:15:11 10° W 11:20:13 28° NNW 11:25:04 10° NNE daylight
17 Mar - 13:01:21 10° NW 13:04:31 15° N 13:07:33 10° NNE daylight
17 Mar - 14:45:37 10° NNW 14:49:10 17° NNE 14:52:32 10° ENE daylight
17 Mar - 16:27:55 10° NNW 16:33:02 42° NE 16:37:41 10° ESE daylight
17 Mar - 18:10:34 10° NW 18:15:23 39° WSW 18:19:47 10° S visible
18 Mar - 07:08:19 10° ESE 07:10:08 11° ESE 07:11:57 10° E daylight
18 Mar - 08:45:37 10° SSW 08:51:30 59° ESE 08:57:10 10° NE daylight
18 Mar - 10:28:40 10° WSW 10:34:12 38° NW 10:39:30 10° NNE daylight
18 Mar - 12:14:31 10° NW 12:18:10 17° NNW 12:21:41 10° NNE daylight
18 Mar - 13:59:45 10° NNW 14:02:50 15° N 14:05:48 10° NE daylight
18 Mar - 15:42:19 10° NNW 15:47:03 29° NE 15:51:24 10° E daylight
18 Mar - 17:24:41 10° NW 17:29:54 67° WSW 17:34:37 10° SSE daylight
18 Mar - 19:10:22 10° W 19:11:06 10° W 19:11:49 10° WSW visible
19 Mar - 08:00:33 10° S 08:06:00 37° ESE 08:11:17 10° NE daylight
19 Mar - 09:42:26 10° SW 09:48:18 54° NW 09:53:55 10° NNE daylight
19 Mar - 11:27:39 10° WNW 11:31:55 20° NNW 11:35:59 10° NNE daylight
19 Mar - 13:13:36 10° NNW 13:16:28 14° N 13:19:14 10° NNE daylight
19 Mar - 14:56:44 10° NNW 15:00:56 22° NNE 15:04:52 10° ENE daylight
19 Mar - 16:38:57 10° NW 16:44:16 75° NE 16:49:03 10° SE daylight
19 Mar - 18:22:25 10° WNW 18:25:57 19° WSW 18:29:16 10° SSW visible
20 Mar - 07:16:04 10° SSE 07:20:37 23° ESE 07:25:04 10° ENE daylight
20 Mar - 08:56:29 10° SW 09:02:31 81° NW 09:08:17 10° NE daylight
20 Mar - 10:40:53 10° W 10:45:44 26° NNW 10:50:24 10° NNE daylight
20 Mar - 12:27:05 10° NW 12:30:05 14° N 12:32:59 10° NNE daylight
20 Mar - 14:11:03 10° NNW 14:14:43 18° NNE 14:18:10 10° ENE daylight
20 Mar - 15:53:18 10° NNW 15:58:28 47° NE 16:03:09 10° ESE daylight
20 Mar - 17:36:05 10° NW 17:40:40 33° WSW 17:44:52 10° S daylight
21 Mar - 06:32:35 10° SE 06:35:22 14° ESE 06:38:07 10° ENE daylight
21 Mar - 08:10:54 10° SSW 08:16:51 67° ESE 08:22:35 10° NE daylight
21 Mar - 09:54:17 10° WSW 09:59:41 34° NW 10:04:49 10° NNE daylight
21 Mar - 11:40:18 10° NW 11:43:44 16° NNW 11:47:03 10° NNE daylight
21 Mar - 13:25:15 10° NNW 13:28:24 15° NNE 13:31:25 10° NE daylight
21 Mar - 15:07:42 10° NNW 15:12:31 32° NE 15:16:56 10° E daylight
21 Mar - 16:50:07 10° NW 16:55:14 57° WSW 16:59:51 10° SSE daylight
22 Mar - 07:25:44 10° S 07:31:19 42° ESE 07:36:43 10° NE daylight
22 Mar - 09:07:58 10° WSW 09:13:44 49° NW 09:19:14 10° NNE daylight
22 Mar - 10:53:25 10° WNW 10:57:27 19° NNW 11:01:19 10° NNE daylight
22 Mar - 12:39:11 10° NNW 12:42:03 14° N 12:44:47 10° NE daylight
22 Mar - 14:22:07 10° NNW 14:26:26 24° NNE 14:30:27 10° E daylight
22 Mar - 16:04:21 10° NW 16:09:38 86° NE 16:14:23 10° SE daylight
22 Mar - 17:48:09 10° WNW 17:51:09 16° WSW 17:54:02 10° SW daylight
23 Mar - 06:41:03 10° SSE 06:45:54 26° ESE 06:50:38 10° NE daylight
23 Mar - 08:21:56 10° SW 08:27:55 72° NW 08:33:38 10° NE daylight
23 Mar - 10:06:35 10° W 10:11:15 24° NNW 10:15:42 10° NNE daylight
23 Mar - 11:52:47 10° NW 11:55:39 14° N 11:58:26 10° NNE daylight
23 Mar - 13:36:28 10° NNW 13:40:14 19° NNE 13:43:47 10° ENE daylight
23 Mar - 15:18:41 10° NNW 15:23:52 53° NE 15:28:34 10° SE daylight
23 Mar - 17:01:37 10° NW 17:05:55 28° WSW 17:09:54 10° S daylight
24 Mar - 05:57:10 10° SE 06:00:37 16° ESE 06:03:59 10° ENE daylight
24 Mar - 07:36:14 10° SSW 07:42:13 76° ESE 07:47:56 10° NE daylight
24 Mar - 09:19:56 10° W 09:25:09 31° NW 09:30:08 10° NNE daylight
24 Mar - 11:06:03 10° NW 11:09:17 15° NNW 11:12:25 10° NNE daylight
24 Mar - 12:50:44 10° NNW 12:53:57 16° NNE 12:57:02 10° NE daylight
24 Mar - 14:33:04 10° NNW 14:37:58 35° NE 14:42:26 10° ESE daylight
24 Mar - 16:15:34 10° NW 16:20:31 48° WSW 16:25:02 10° SSE daylight
